Date String (YYYY-MM-DD hh:mm:ss) UTC,Instrument flags,Ambient pressure (hPa),Sample flow (lpm),Bypass flow (lpm),Sample temperature (°C),Ambient temperature (°C),ASC tube jacket temperature (°C),LED temperature (°C),Box temperature (°C),Sample RH (%),Mass concentration (μg/m³),Mass concentration (μg/m³)
DateTimeUTC,F1_M11,P_M11,Q1_M11,Q2_M11,T1_M11,T2_M11,T3_M11,T4_M11,T5_M11,U1_M11,X0_M11,X2_M11
2021-08-17 04:00:00,,0826.4,5.00,0.00,29.2,28.1,00.0,38.2,31.1,17.9,0035.00,0025.62
2021-08-17 04:01:00,,0826.2,5.01,0.00,29.3,28.3,00.0,38.3,31.2,17.9,0034.79,0025.61
2021-08-17 04:02:00,,0826.3,4.98,0.00,29.3,28.4,00.0,38.3,31.2,17.7,0035.73,0025.59
2021-08-17 04:03:00,,0826.3,5.01,0.00,29.4,28.5,00.0,38.3,31.2,17.7,0035.96,0025.62
2021-08-17 04:04:00,,0826.2,4.98,0.00,29.4,28.6,00.0,38.3,31.3,17.6,0035.81,0025.62
2021-08-17 04:05:00,,0826.3,5.01,0.00,29.5,28.7,00.0,38.4,31.4,17.5,0034.98,0025.63
2021-08-17 04:06:00,,0826.2,5.01,0.00,29.5,28.7,00.0,38.4,31.4,17.6,0034.84,0025.63
2021-08-17 04:07:00,,0826.2,4.99,0.00,29.5,27.5,00.0,38.4,31.1,17.6,0035.38,0025.61
2021-08-17 04:08:00,,0826.2,5.01,0.00,29.4,26.4,00.0,38.4,30.8,17.7,0036.52,0025.62
2021-08-17 04:09:00,,0826.2,4.99,0.00,29.3,26.5,00.0,38.4,30.8,17.7,0037.20,0025.66
2021-08-17 04:10:00,,0826.2,5.00,0.00,29.2,26.8,00.0,38.4,30.9,17.7,0038.05,0025.65
2021-08-17 04:11:00,,0826.2,5.00,0.00,29.2,27.2,00.0,38.4,31.0,17.8,0037.98,0025.55
2021-08-17 04:12:00,,0826.2,5.01,0.00,29.3,27.5,00.0,38.3,31.0,17.8,0037.83,0025.49
2021-08-17 04:13:00,,0826.2,4.99,0.00,29.3,27.8,00.0,38.3,31.1,17.7,0037.35,0025.49
2021-08-17 04:14:00,,0826.2,5.01,0.00,29.3,28.0,00.0,38.4,31.2,17.7,0036.73,0025.47
2021-08-17 04:15:00,,0826.2,5.00,0.00,29.4,28.2,00.0,38.4,31.2,17.7,0036.89,0025.55
2021-08-17 04:16:00,,0826.2,5.01,0.00,29.4,28.3,00.0,38.4,31.3,17.6,0037.61,0025.55
2021-08-17 04:17:00,,0826.2,5.00,0.00,29.5,28.5,00.0,38.4,31.3,17.5,0038.55,0025.52
2021-08-17 04:18:00,,0826.2,5.00,0.00,29.5,28.6,00.0,38.4,31.4,17.5,0038.34,0025.50
2021-08-17 04:19:00,,0826.2,5.00,0.00,29.5,28.7,00.0,38.5,31.4,17.5,0037.39,0025.56
2021-08-17 04:20:00,,0826.2,4.99,0.00,29.6,28.7,00.0,38.5,31.4,17.4,0036.94,0025.55
2021-08-17 04:21:00,,0826.2,4.99,0.00,29.5,27.2,00.0,38.5,31.0,17.5,0036.47,0025.57
2021-08-17 04:22:00,,0826.2,5.00,0.00,29.3,25.5,00.0,38.5,30.5,17.6,0036.59,0025.67
2021-08-17 04:23:00,,0826.2,5.01,0.00,29.2,25.5,00.0,38.4,30.5,17.7,0036.78,0025.74
2021-08-17 04:24:00,,0826.2,5.00,0.00,29.1,25.9,00.0,38.4,30.6,17.7,0037.38,0025.75
2021-08-17 04:25:00,,0826.2,4.99,0.00,29.1,26.4,00.0,38.3,30.7,17.8,0037.74,0025.79
2021-08-17 04:26:00,,0826.2,4.99,0.00,29.1,26.8,00.0,38.3,30.8,17.8,0037.90,0025.74
2021-08-17 04:27:00,,0826.2,5.01,0.00,29.1,27.2,00.0,38.3,30.9,17.7,0037.34,0025.76
2021-08-17 04:28:00,,0826.2,5.01,0.00,29.2,27.5,00.0,38.3,30.9,17.7,0036.54,0025.80
2021-08-17 04:29:00,,0826.2,5.00,0.00,29.2,27.7,00.0,38.3,31.0,17.6,0035.98,0025.79
2021-08-17 04:30:00,,0826.1,4.99,0.00,29.3,27.9,00.0,38.3,31.1,17.6,0035.96,0025.74
2021-08-17 04:31:00,,0826.2,5.00,0.00,29.3,28.1,00.0,38.3,31.2,17.5,0036.04,0025.72
2021-08-17 04:32:00,,0826.2,5.01,0.00,29.3,28.3,00.0,38.3,31.2,17.5,0036.18,0025.75
2021-08-17 04:33:00,,0826.1,4.98,0.00,29.4,28.4,00.0,38.4,31.3,17.5,0037.38,0025.75
2021-08-17 04:34:00,,0826.2,5.01,0.00,29.4,28.5,00.0,38.4,31.3,17.4,0037.65,0025.77
2021-08-17 04:35:00,,0826.1,5.00,0.00,29.5,28.6,00.0,38.4,31.3,17.3,0036.75,0025.80
2021-08-17 04:36:00,,0826.1,4.99,0.00,29.5,28.7,00.0,38.4,31.4,17.3,0036.25,0025.82
2021-08-17 04:37:00,,0826.2,5.01,0.00,29.6,28.7,00.0,38.5,31.4,17.3,0037.38,0025.82
2021-08-17 04:38:00,,0826.2,4.99,0.00,29.6,28.4,00.0,38.5,31.3,17.2,0037.56,0025.85
2021-08-17 04:39:00,,0826.2,5.01,0.00,29.5,26.7,00.0,38.5,30.9,17.3,0037.71,0025.90
2021-08-17 04:40:00,,0826.2,4.99,0.00,29.4,26.3,00.0,38.5,30.8,17.5,0038.75,0025.98
2021-08-17 04:41:00,,0826.2,4.99,0.00,29.3,26.6,00.0,38.5,30.8,17.5,0039.30,0026.01
2021-08-17 04:42:00,,0826.2,5.00,0.00,29.3,27.0,00.0,38.4,30.9,17.5,0039.05,0026.03
2021-08-17 04:43:00,,0826.2,5.01,0.00,29.3,27.3,00.0,38.4,31.0,17.5,0038.70,0026.08
2021-08-17 04:44:00,,0826.2,5.01,0.00,29.3,27.6,00.0,38.4,31.1,17.4,0037.47,0026.12
2021-08-17 04:45:00,,0826.2,4.99,0.00,29.3,27.9,00.0,38.4,31.1,17.4,0037.30,0026.15
2021-08-17 04:46:00,,0826.1,5.01,0.00,29.4,28.1,00.0,38.4,31.2,17.4,0037.86,0026.17
2021-08-17 04:47:00,,0826.1,4.99,0.00,29.4,28.2,00.0,38.4,31.2,17.3,0039.02,0026.21
2021-08-17 04:48:00,,0826.1,4.99,0.00,29.5,28.4,00.0,38.5,31.3,17.3,0038.17,0026.18
2021-08-17 04:49:00,,0826.0,5.01,0.00,29.5,28.5,00.0,38.5,31.3,17.3,0037.29,0026.20
2021-08-17 04:50:00,,0826.1,4.99,0.00,29.5,28.6,00.0,38.5,31.4,17.2,0037.65,0026.23
2021-08-17 04:51:00,,0826.0,4.99,0.00,29.6,28.7,00.0,38.5,31.4,17.2,0036.80,0026.24
2021-08-17 04:52:00,,0826.0,5.00,0.00,29.6,28.1,00.0,38.5,31.3,17.2,0036.39,0026.27
2021-08-17 04:53:00,,0826.0,5.00,0.00,29.5,26.1,00.0,38.5,30.8,17.2,0036.51,0026.35
2021-08-17 04:54:00,,0826.0,4.99,0.00,29.3,25.3,00.0,38.5,30.5,17.3,0036.75,0026.37
2021-08-17 04:55:00,,0825.9,5.00,0.00,29.2,25.7,00.0,38.4,30.5,17.5,0036.85,0026.41
2021-08-17 04:56:00,,0826.0,5.02,0.00,29.1,26.1,00.0,38.4,30.6,17.5,0037.28,0026.41
2021-08-17 04:57:00,,0825.9,5.00,0.00,29.1,26.6,00.0,38.3,30.7,17.5,0037.56,0026.43
2021-08-17 04:58:00,,0825.9,5.01,0.00,29.1,27.0,00.0,38.3,30.8,17.6,0036.64,0026.36
2021-08-17 04:59:00,,0825.9,5.00,0.00,29.1,27.3,00.0,38.3,30.9,17.5,0036.36,0026.41
